sat.trackr.live / text

‹ back to catalog

STARLINK-31128

NORAD 58669 · 2023-211C

PAYLOAD ACTIVE UNKNOWN

§ Identity

Operator
Country
US
Launch date
2023-12-29
Launch site
AFETR
Launch vehicle
Mass (kg)
RCS (m²)

Purposes: comms

External: N2YO · Heavens-Above · Gunter

§ Orbital elements

Epoch: 2026-05-24T23:35:45.295296Z

Period
94.27 min
Inclination
43.0023°
Eccentricity
0.0001188
Mean motion
15.27556427 rev/d
Perigee alt
482.3 km
Apogee alt
483.9 km
Semi-major
6,861.3 km
B*
-4.4004e-6
RAAN
14.3325°
Arg perigee
268.2731°
Mean anomaly
91.7984°
Rev number
13,413

§ Raw data

STARLINK-311281 58669U 23211C   26144.98316314 -.00000383  00000+0 -44004-5 0  99972 58669  43.0023  14.3325 0001188 268.2731  91.7984 15.27556427134137

JSON: /api/v1/satellites/58669 · /tle

For live sub-satellite position, see the globe view (requires WebGL).

§ Visibility from observer

Set your observer location to see the next 7 days of passes ≥ 10°. The values pass through the URL so the page stays shareable.

No JS? Fill the form by hand. The geolocation button needs JavaScript.